Location: Laura�t
(43.9341°N, 0.2497°E)
Time: 22:57:44
(UTC+00:00)

SJ-6B - Pass Details

Date: 03 March 2021
Orbit: 509 x 581 km, 97.6° (Epoch: 17 April)

Event Time Altitude Azimuth Distance (km) Brightness Sun altitude
Exits shadow 19:22:42 36° 111° (ESE) 920 3.4 -17.4°
Maximum altitude 19:23:43 44° 72° (ENE) 804 3.2 -17.6°
Drops below altitude 10° 19:27:35 10° 0° (N) 1,878 5.6 -18.3°
Sets 19:29:47 0° 354° (N) 2,769 6.6 -18.7°
